CW6406 Weather Reports


Display with metric or nautical units.
time (UTC)temp
F
wind
direction
speed
MPH
gust
MPH
rain 1hr
in
rain 24hr
in
rain mn
in
humidity
%
barometer
mb
20260510093044 46 360 0.0 0.0 0.00 0.00 0.00 94 1010.3
20260510091558 47 360 0.0 0.0 0.00 0.00 0.00 94 1010.2
20260510090004 48 360 0.0 0.0 0.00 0.00 0.00 94 1010.2
20260510084528 48 360 0.0 0.0 0.00 0.00 0.00 94 1010.1
20260510083030 49 360 0.0 0.0 0.00 0.00 0.00 93 1010.0
20260510081550 50 360 0.0 0.0 0.00 0.00 0.00 93 1009.9
20260510080053 51 360 0.0 0.0 0.00 0.00 0.00 93 1009.9
20260510074506 52 360 0.0 0.0 0.00 0.00 0.00 94 1009.9
20260510073031 52 360 0.0 2.0 0.00 0.00 0.00 94 1009.6
20260510071506 52 360 0.0 3.0 0.00 0.00 0.00 94 1009.5
20260510070006 51 360 0.0 1.0 0.00 0.00 0.00 93 1009.5
20260510064523 52 360 0.0 0.0 0.00 0.00 0.00 93 1009.4
20260510063045 52 360 0.0 2.0 0.00 0.00 0.00 93 1009.4
20260510061514 52 360 0.0 0.0 0.00 0.00 0.00 91 1009.5
20260510060010 53 360 0.0 1.0 0.00 0.00 0.00 90 1009.3
20260510054526 55 360 0.0 3.0 0.00 0.00 0.00 90 1009.2
20260510053046 56 360 0.0 2.0 0.00 0.00 0.00 90 1009.3
20260510051508 56 360 0.0 2.0 0.00 0.00 0.00 90 1009.3
20260510050015 56 360 0.0 2.0 0.00 0.00 0.00 90 1009.4
20260510044537 56 360 0.0 1.0 0.00 0.00 0.00 90 1009.3
20260510043014 57 360 0.0 0.0 0.00 0.00 0.00 87 1009.3
20260510041520 58 360 0.0 0.0 0.00 0.00 0.00 86 1009.1
20260510040023 59 360 0.0 2.0 0.00 0.00 0.00 84 1009.2
20260510034542 59 360 0.0 2.0 0.00 0.00 0.00 84 1009.1
20260510033007 57 360 0.0 2.0 0.00 0.00 0.00 88 1008.9
20260510031538 56 360 0.0 1.0 0.00 0.00 0.00 89 1008.8
20260510030027 55 360 0.0 0.0 0.00 0.00 0.00 89 1008.7
20260510024557 56 360 0.0 0.0 0.00 0.00 0.00 88 1008.6
20260510023019 56 360 0.0 0.0 0.00 0.00 0.00 87 1008.4
20260510021541 57 360 0.0 0.0 0.00 0.00 0.00 86 1008.4
20260510020049 57 360 0.0 0.0 0.00 0.00 0.00 85 1008.1
20260510014515 58 360 0.0 0.0 0.00 0.00 0.00 84 1007.9
20260510013030 59 360 0.0 0.0 0.00 0.00 0.00 82 1007.8
20260510011503 60 360 0.0 0.0 0.00 0.00 0.00 79 1007.5
20260510010057 61 360 0.0 0.0 0.00 0.00 0.00 77 1007.4
20260510004523 63 360 0.0 0.0 0.00 0.00 0.00 74 1007.2
20260510003101 65 360 0.0 0.0 0.00 0.00 0.00 70 1007.0
20260510001515 67 360 0.0 0.0 0.00 0.00 0.00 66 1006.9
20260510000013 69 360 0.0 0.0 0.00 0.00 0.00 62 1006.7
20260509234529 71 360 0.0 3.0 0.00 0.00 0.00 56 1006.6
20260509233051 72 360 0.0 1.0 0.00 0.00 0.00 53 1006.6
20260509231518 74 233 0.0 4.0 0.00 0.00 0.00 51 1006.5
20260509230025 75 215 0.0 4.0 0.00 0.00 0.00 49 1006.5
20260509224545 76 49 0.0 6.0 0.00 0.00 0.00 49 1006.6
20260509223009 76 135 2.0 5.0 0.00 0.00 0.00 45 1006.5
20260509221515 76 260 1.0 7.0 0.00 0.00 0.00 47 1006.5
20260509220017 75 155 1.0 5.0 0.00 0.00 0.00 48 1006.4
20260509214536 75 205 1.0 7.0 0.00 0.00 0.00 49 1006.5
20260509213003 76 191 2.0 9.0 0.00 0.00 0.00 47 1006.5
20260509211520 76 207 1.0 5.0 0.00 0.00 0.00 50 1006.5
20260509210034 75 188 1.0 10.0 0.00 0.00 0.00 50 1006.3
20260509204557 75 186 1.0 6.0 0.00 0.00 0.00 52 1006.3
20260509204505 75 155 1.0 6.0 0.00 0.00 0.00 52 1006.3
20260509203024 75 257 1.0 7.0 0.00 0.00 0.00 52 1006.2
20260509201550 75 360 2.0 10.0 0.00 0.00 0.00 49 1006.2
20260509200053 76 328 2.0 8.0 0.00 0.00 0.00 47 1006.3
20260509194559 75 207 2.0 7.0 0.00 0.00 0.00 51 1006.5
20260509193027 75 271 4.0 8.0 0.00 0.00 0.00 50 1006.8
20260509191531 74 360 1.0 6.0 0.00 0.00 0.00 56 1006.9
20260509190039 73 165 2.0 6.0 0.00 0.00 0.00 54 1007.4
20260509184551 74 360 1.0 5.0 0.00 0.00 0.00 56 1007.5
20260509183026 73 360 1.0 7.0 0.00 0.00 0.00 57 1007.8
20260509181543 73 360 2.0 9.0 0.00 0.00 0.00 58 1008.0
20260509180037 71 360 3.0 10.0 0.00 0.00 0.00 57 1008.1
20260509174506 73 360 4.0 8.0 0.00 0.00 0.00 57 1008.1
20260509173027 71 360 2.0 9.0 0.00 0.00 0.00 60 1008.3
20260509171548 70 360 3.0 9.0 0.00 0.00 0.00 64 1008.5
20260509170051 69 360 2.0 7.0 0.00 0.00 0.00 64 1008.6
20260509164514 69 360 1.0 7.0 0.00 0.00 0.00 67 1008.6
20260509163044 69 360 2.0 9.0 0.00 0.00 0.00 65 1008.7
20260509161504 69 360 2.0 8.0 0.00 0.00 0.00 65 1008.8
20260509160010 68 360 2.0 14.0 0.00 0.00 0.00 67 1008.8
20260509154517 66 360 1.0 8.0 0.00 0.00 0.00 68 1009.1
20260509153048 67 360 4.0 12.0 0.00 0.00 0.00 67 1009.3
20260509151508 67 360 2.0 8.0 0.00 0.00 0.00 67 1009.3
20260509150023 66 360 4.0 9.0 0.00 0.00 0.00 66 1009.6
20260509144550 65 360 3.0 10.0 0.00 0.00 0.00 68 1009.5
20260509143017 63 360 1.0 5.0 0.00 0.00 0.00 70 1009.8
20260509141535 61 360 2.0 6.0 0.00 0.00 0.00 72 1010.2
20260509140033 60 360 0.0 5.0 0.00 0.00 0.00 75 1010.3
20260509134602 60 360 1.0 5.0 0.00 0.00 0.00 73 1010.3
20260509134505 59 360 1.0 5.0 0.00 0.00 0.00 73 1010.3
20260509133033 60 360 2.0 7.0 0.00 0.00 0.00 72 1010.4
20260509131552 59 360 1.0 6.0 0.00 0.00 0.00 72 1010.5
20260509130045 58 360 0.0 4.0 0.00 0.00 0.00 75 1010.5
20260509124514 57 360 1.0 4.0 0.00 0.00 0.00 76 1010.4
20260509123033 56 360 0.0 4.0 0.00 0.00 0.00 77 1010.5
20260509121504 55 360 1.0 4.0 0.00 0.00 0.00 78 1010.5
20260509120007 54 360 1.0 4.0 0.00 0.00 0.00 79 1010.5
20260509114532 53 360 0.0 2.0 0.00 0.00 0.00 80 1010.6
20260509113002 52 360 0.0 1.0 0.00 0.00 0.00 80 1010.6
20260509111520 51 360 1.0 5.0 0.00 0.00 0.00 80 1010.6
20260509110033 50 360 0.0 4.0 0.00 0.00 0.00 81 1010.5
20260509104547 49 360 0.0 3.0 0.00 0.00 0.00 81 1010.5
20260509103008 49 360 0.0 2.0 0.00 0.00 0.00 80 1010.4
20260509101522 49 360 0.0 3.0 0.00 0.00 0.00 78 1010.4
20260509100029 49 360 0.0 2.0 0.00 0.00 0.00 78 1010.3
20260509094547 49 360 0.0 1.0 0.00 0.00 0.00 78 1010.2